Time,TemperatureF,DewpointF,PressureIn,WindDirection,WindDirectionDegrees,WindSpeedMPH,WindSpeedGustMPH,Humidity,HourlyPrecipIn,Conditions,Clouds,dailyrainin,SoftwareType,DateUTC
2013-03-19 00:05:00,32.0,31.3,29.54,NW,315,20.0,22.0,97,0.00,,,0.20,meteohub,2013-03-19 00:05:00,
2013-03-19 00:10:00,32.0,31.3,29.54,East,90,12.0,23.0,97,0.00,,,0.00,meteohub,2013-03-19 00:10:00,
2013-03-19 00:15:00,32.0,31.3,29.54,ENE,67,15.0,23.0,97,0.00,,,0.00,meteohub,2013-03-19 00:15:00,
2013-03-19 00:20:00,32.0,31.3,29.54,ENE,67,5.0,20.0,97,0.00,,,0.00,meteohub,2013-03-19 00:20:00,
2013-03-19 00:26:00,32.0,31.3,29.54,ENE,67,15.0,15.0,97,0.00,,,0.00,meteohub,2013-03-19 00:26:00,
2013-03-19 00:31:00,32.0,31.5,29.54,ENE,67,6.0,15.0,98,0.00,,,0.00,meteohub,2013-03-19 00:31:00,
2013-03-19 00:36:00,32.0,31.5,29.54,NE,45,8.0,17.0,98,0.00,,,0.00,meteohub,2013-03-19 00:36:00,
2013-03-19 00:41:00,32.0,31.5,29.54,NE,45,10.0,17.0,98,0.00,,,0.00,meteohub,2013-03-19 00:41:00,
2013-03-19 00:46:00,32.0,31.5,29.54,NNE,22,11.0,17.0,98,0.00,,,0.00,meteohub,2013-03-19 00:46:00,
2013-03-19 00:52:00,32.0,31.5,29.54,NE,45,9.0,16.0,98,0.00,,,0.00,meteohub,2013-03-19 00:52:00,
2013-03-19 00:57:00,32.2,31.6,29.54,East,90,11.0,16.0,98,0.00,,,0.00,meteohub,2013-03-19 00:57:00,
2013-03-19 01:02:00,32.2,31.6,29.54,NE,45,11.0,17.0,98,0.00,,,0.00,meteohub,2013-03-19 01:02:00,
2013-03-19 01:07:00,32.2,31.6,29.54,NNE,22,11.0,17.0,98,0.00,,,0.00,meteohub,2013-03-19 01:07:00,
2013-03-19 01:12:00,32.2,31.6,29.54,NE,45,13.0,17.0,98,0.00,,,0.00,meteohub,2013-03-19 01:12:00,
2013-03-19 01:17:00,32.2,31.6,29.54,ENE,67,10.0,20.0,98,0.00,,,0.00,meteohub,2013-03-19 01:17:00,
2013-03-19 01:22:00,32.2,31.6,29.54,East,90,18.0,20.0,98,0.00,,,0.00,meteohub,2013-03-19 01:22:00,
2013-03-19 01:27:00,32.2,31.6,29.54,NE,45,11.0,20.0,98,0.00,,,0.00,meteohub,2013-03-19 01:27:00,
2013-03-19 01:32:00,32.2,31.6,29.54,NE,45,13.0,20.0,98,0.00,,,0.00,meteohub,2013-03-19 01:32:00,
2013-03-19 01:38:00,32.2,31.6,29.54,East,90,15.0,18.0,98,0.00,,,0.00,meteohub,2013-03-19 01:38:00,
2013-03-19 01:43:00,32.2,31.6,29.54,ENE,67,10.0,22.0,98,0.00,,,0.00,meteohub,2013-03-19 01:43:00,
2013-03-19 01:48:00,32.2,31.6,29.54,NE,45,15.0,22.0,98,0.00,,,0.00,meteohub,2013-03-19 01:48:00,
2013-03-19 01:53:00,32.2,31.6,29.54,ENE,67,8.0,22.0,98,0.00,,,0.00,meteohub,2013-03-19 01:53:00,
2013-03-19 01:58:00,32.2,31.6,29.54,NE,45,13.0,19.0,98,0.00,,,0.00,meteohub,2013-03-19 01:58:00,
2013-03-19 02:04:00,32.2,31.6,29.54,NE,45,12.0,19.0,98,0.00,,,0.00,meteohub,2013-03-19 02:04:00,
2013-03-19 02:09:00,32.4,31.8,29.54,ENE,67,13.0,19.0,98,0.00,,,0.00,meteohub,2013-03-19 02:09:00,
2013-03-19 02:14:00,32.2,31.6,29.54,East,90,13.0,18.0,98,0.00,,,0.00,meteohub,2013-03-19 02:14:00,
2013-03-19 02:19:00,32.2,31.6,29.54,NE,45,6.0,18.0,98,0.00,,,0.00,meteohub,2013-03-19 02:19:00,
2013-03-19 02:24:00,32.2,31.6,29.54,ENE,67,11.0,18.0,98,0.00,,,0.00,meteohub,2013-03-19 02:24:00,
2013-03-19 02:29:00,32.2,31.6,29.54,NE,45,9.0,18.0,98,0.00,,,0.00,meteohub,2013-03-19 02:29:00,
2013-03-19 02:34:00,32.4,31.8,29.54,NNE,22,15.0,17.0,98,0.00,,,0.00,meteohub,2013-03-19 02:34:00,
2013-03-19 02:39:00,32.4,31.8,29.54,East,90,10.0,17.0,98,0.00,,,0.00,meteohub,2013-03-19 02:39:00,
2013-03-19 02:44:00,32.4,31.6,29.54,NE,45,13.0,20.0,97,0.00,,,0.00,meteohub,2013-03-19 02:44:00,
2013-03-19 02:50:00,32.5,31.8,29.54,NNE,22,13.0,20.0,97,0.00,,,0.00,meteohub,2013-03-19 02:50:00,
2013-03-19 02:55:00,32.5,31.8,29.54,East,90,11.0,18.0,97,0.00,,,0.00,meteohub,2013-03-19 02:55:00,
2013-03-19 03:00:00,32.5,31.8,29.54,NE,45,19.0,23.0,97,0.00,,,0.00,meteohub,2013-03-19 03:00:00,
2013-03-19 03:05:00,32.5,31.8,29.54,NE,45,10.0,23.0,97,0.00,,,0.00,meteohub,2013-03-19 03:05:00,
2013-03-19 03:10:00,32.5,31.5,29.54,ENE,67,15.0,23.0,96,0.00,,,0.00,meteohub,2013-03-19 03:10:00,
2013-03-19 03:16:00,32.5,31.5,29.54,NNE,22,13.0,19.0,96,0.00,,,0.00,meteohub,2013-03-19 03:16:00,
2013-03-19 03:21:00,32.5,31.5,29.54,ENE,67,12.0,16.0,96,0.00,,,0.00,meteohub,2013-03-19 03:21:00,
2013-03-19 03:26:00,32.5,31.8,29.54,East,90,10.0,17.0,97,0.00,,,0.00,meteohub,2013-03-19 03:26:00,
2013-03-19 03:31:00,32.5,31.8,29.54,ENE,67,13.0,17.0,97,0.00,,,0.00,meteohub,2013-03-19 03:31:00,
2013-03-19 03:37:00,32.5,31.8,29.54,ENE,67,9.0,17.0,97,0.00,,,0.00,meteohub,2013-03-19 03:37:00,
2013-03-19 03:42:00,32.5,31.8,29.54,ENE,67,13.0,17.0,97,0.00,,,0.00,meteohub,2013-03-19 03:42:00,
2013-03-19 03:47:00,32.7,32.0,29.54,ENE,67,6.0,17.0,97,0.00,,,0.00,meteohub,2013-03-19 03:47:00,
2013-03-19 03:52:00,32.7,32.0,29.54,NNE,22,6.0,17.0,97,0.00,,,0.00,meteohub,2013-03-19 03:52:00,
2013-03-19 03:57:00,32.7,32.0,29.54,East,90,10.0,17.0,97,0.00,,,0.00,meteohub,2013-03-19 03:57:00,
2013-03-19 04:00:00,32.7,32.0,29.54,East,90,13.0,17.0,97,0.00,,,0.00,meteohub,2013-03-19 04:00:00,
2013-03-19 04:02:00,32.7,32.0,29.54,East,90,10.0,17.0,97,0.00,,,0.00,meteohub,2013-03-19 04:02:00,
2013-03-19 04:04:00,32.7,32.0,29.54,NE,45,9.0,17.0,97,0.00,,,0.00,meteohub,2013-03-19 04:04:00,
2013-03-19 04:08:00,32.7,31.6,29.54,NE,45,16.0,16.0,96,0.00,,,0.00,meteohub,2013-03-19 04:08:00,
2013-03-19 04:13:00,32.7,31.6,29.54,East,90,13.0,17.0,96,0.00,,,0.00,meteohub,2013-03-19 04:13:00,
2013-03-19 04:18:00,32.7,31.5,29.54,NE,45,11.0,19.0,95,0.00,,,0.00,meteohub,2013-03-19 04:18:00,
2013-03-19 04:23:00,32.7,31.5,29.54,NE,45,7.0,19.0,95,0.00,,,0.00,meteohub,2013-03-19 04:23:00,
2013-03-19 04:29:00,32.7,31.1,29.54,NE,45,17.0,19.0,94,0.00,,,0.00,meteohub,2013-03-19 04:29:00,
2013-03-19 04:34:00,32.7,31.1,29.54,ENE,67,11.0,17.0,94,0.00,,,0.00,meteohub,2013-03-19 04:34:00,
2013-03-19 04:39:00,32.7,30.9,29.54,East,90,11.0,17.0,93,0.00,,,0.00,meteohub,2013-03-19 04:39:00,
2013-03-19 04:45:00,32.7,30.9,29.54,ENE,67,10.0,20.0,93,0.00,,,0.00,meteohub,2013-03-19 04:45:00,
2013-03-19 04:50:00,32.5,30.7,29.54,East,90,8.0,20.0,93,0.00,,,0.00,meteohub,2013-03-19 04:50:00,
2013-03-19 04:55:00,32.5,30.7,29.54,East,90,6.0,20.0,93,0.00,,,0.00,meteohub,2013-03-19 04:55:00,
2013-03-19 05:01:00,32.5,30.6,29.54,East,90,9.0,17.0,92,0.00,,,0.00,meteohub,2013-03-19 05:01:00,
2013-03-19 05:06:00,32.5,30.6,29.54,ENE,67,15.0,17.0,92,0.00,,,0.00,meteohub,2013-03-19 05:06:00,
2013-03-19 05:11:00,32.5,30.6,29.54,NNE,22,11.0,18.0,92,0.00,,,0.00,meteohub,2013-03-19 05:11:00,
2013-03-19 05:16:00,32.5,30.6,29.54,North,0,13.0,20.0,92,0.00,,,0.00,meteohub,2013-03-19 05:16:00,
2013-03-19 05:21:00,32.5,30.6,29.54,ENE,67,13.0,20.0,92,0.00,,,0.00,meteohub,2013-03-19 05:21:00,
2013-03-19 05:26:00,32.5,30.6,29.54,ENE,67,10.0,20.0,92,0.00,,,0.00,meteohub,2013-03-19 05:26:00,
2013-03-19 05:32:00,32.5,30.6,29.54,NNE,22,12.0,17.0,92,0.00,,,0.00,meteohub,2013-03-19 05:32:00,
2013-03-19 05:37:00,32.4,30.4,29.54,ENE,67,14.0,20.0,92,0.00,,,0.00,meteohub,2013-03-19 05:37:00,
2013-03-19 05:42:00,32.4,30.6,29.54,ENE,67,13.0,20.0,93,0.00,,,0.00,meteohub,2013-03-19 05:42:00,
2013-03-19 05:48:00,32.4,31.1,29.54,NE,45,12.0,20.0,95,0.00,,,0.00,meteohub,2013-03-19 05:48:00,
2013-03-19 05:53:00,32.2,30.7,29.54,ENE,67,15.0,17.0,94,0.00,,,0.00,meteohub,2013-03-19 05:53:00,
2013-03-19 05:58:00,32.2,30.6,29.54,ENE,67,14.0,18.0,94,0.00,,,0.00,meteohub,2013-03-19 05:58:00,
2013-03-19 06:03:00,32.2,30.6,29.54,NE,45,13.0,18.0,94,0.00,,,0.00,meteohub,2013-03-19 06:03:00,
2013-03-19 06:08:00,32.2,30.6,29.54,NE,45,8.0,18.0,94,0.00,,,0.00,meteohub,2013-03-19 06:08:00,
2013-03-19 06:13:00,32.2,30.9,29.54,ENE,67,10.0,18.0,95,0.00,,,0.00,meteohub,2013-03-19 06:13:00,
2013-03-19 06:19:00,32.2,30.9,29.54,East,90,12.0,20.0,95,0.00,,,0.00,meteohub,2013-03-19 06:19:00,
2013-03-19 06:24:00,32.4,31.1,29.54,NE,45,10.0,20.0,95,0.00,,,0.00,meteohub,2013-03-19 06:24:00,
2013-03-19 06:29:00,32.4,31.3,29.54,NE,45,6.0,20.0,96,0.00,,,0.00,meteohub,2013-03-19 06:29:00,
2013-03-19 06:34:00,32.4,31.3,29.54,ENE,67,9.0,16.0,96,0.00,,,0.00,meteohub,2013-03-19 06:34:00,
2013-03-19 06:40:00,32.4,31.1,29.54,ENE,67,11.0,17.0,95,0.00,,,0.00,meteohub,2013-03-19 06:40:00,
2013-03-19 06:45:00,32.4,31.1,29.54,NNE,22,14.0,24.0,95,0.00,,,0.00,meteohub,2013-03-19 06:45:00,
2013-03-19 06:50:00,32.4,31.1,29.54,ENE,67,13.0,24.0,95,0.00,,,0.00,meteohub,2013-03-19 06:50:00,
2013-03-19 06:55:00,32.5,31.3,29.54,ENE,67,15.0,20.0,95,0.00,,,0.00,meteohub,2013-03-19 06:55:00,
2013-03-19 07:01:00,32.5,31.3,29.54,NE,45,6.0,20.0,95,0.00,,,0.00,meteohub,2013-03-19 07:01:00,
2013-03-19 07:06:00,32.5,31.3,29.54,ENE,67,13.0,18.0,95,0.00,,,0.00,meteohub,2013-03-19 07:06:00,
2013-03-19 07:12:00,32.5,31.3,29.54,NE,45,13.0,15.0,95,0.00,,,0.00,meteohub,2013-03-19 07:12:00,
2013-03-19 07:17:00,32.5,31.3,29.54,ENE,67,9.0,20.0,95,0.00,,,0.00,meteohub,2013-03-19 07:17:00,
2013-03-19 07:22:00,32.5,31.3,29.54,ENE,67,13.0,22.0,95,0.00,,,0.00,meteohub,2013-03-19 07:22:00,
2013-03-19 07:27:00,32.5,31.3,29.54,ENE,67,18.0,22.0,95,0.00,,,0.00,meteohub,2013-03-19 07:27:00,
2013-03-19 07:33:00,32.5,31.3,29.54,NE,45,11.0,22.0,95,0.00,,,0.00,meteohub,2013-03-19 07:33:00,
2013-03-19 07:38:00,32.7,31.5,29.54,NE,45,17.0,19.0,95,0.00,,,0.00,meteohub,2013-03-19 07:38:00,
2013-03-19 07:43:00,32.7,31.6,29.54,ENE,67,13.0,19.0,96,0.00,,,0.00,meteohub,2013-03-19 07:43:00,
2013-03-19 07:48:00,32.7,31.6,29.54,ENE,67,15.0,19.0,96,0.00,,,0.00,meteohub,2013-03-19 07:48:00,
2013-03-19 07:53:00,32.9,31.8,29.54,NE,45,15.0,19.0,96,0.00,,,0.00,meteohub,2013-03-19 07:53:00,
2013-03-19 07:59:00,33.1,32.0,29.54,ENE,67,18.0,20.0,96,0.00,,,0.00,meteohub,2013-03-19 07:59:00,
2013-03-19 08:04:00,33.1,31.8,29.54,ENE,67,10.0,20.0,95,0.00,,,0.00,meteohub,2013-03-19 08:04:00,
2013-03-19 08:09:00,33.1,31.8,29.54,NNE,22,11.0,20.0,95,0.00,,,0.00,meteohub,2013-03-19 08:09:00,
2013-03-19 08:14:00,33.1,31.8,29.54,East,90,14.0,23.0,95,0.00,,,0.00,meteohub,2013-03-19 08:14:00,
2013-03-19 08:19:00,33.1,31.8,29.54,NE,45,13.0,23.0,95,0.00,,,0.00,meteohub,2013-03-19 08:19:00,
2013-03-19 08:24:00,33.1,31.8,29.54,NE,45,8.0,26.0,95,0.00,,,0.00,meteohub,2013-03-19 08:24:00,
2013-03-19 08:30:00,33.1,31.8,29.54,East,90,11.0,26.0,95,0.00,,,0.00,meteohub,2013-03-19 08:30:00,
2013-03-19 08:35:00,33.1,32.0,29.54,ENE,67,13.0,16.0,96,0.00,,,0.00,meteohub,2013-03-19 08:35:00,
2013-03-19 08:40:00,33.1,32.0,29.54,East,90,15.0,16.0,96,0.00,,,0.00,meteohub,2013-03-19 08:40:00,
2013-03-19 08:46:00,33.1,32.0,29.54,NE,45,9.0,24.0,96,0.00,,,0.00,meteohub,2013-03-19 08:46:00,
2013-03-19 08:51:00,33.1,32.0,29.57,ENE,67,13.0,24.0,96,0.00,,,0.00,meteohub,2013-03-19 08:51:00,
2013-03-19 08:56:00,33.3,32.2,29.57,ENE,67,11.0,24.0,96,0.00,,,0.00,meteohub,2013-03-19 08:56:00,
2013-03-19 09:01:00,33.3,32.0,29.57,ENE,67,16.0,24.0,95,0.00,,,0.00,meteohub,2013-03-19 09:01:00,
2013-03-19 09:07:00,33.3,32.0,29.54,ENE,67,15.0,24.0,95,0.00,,,0.00,meteohub,2013-03-19 09:07:00,
2013-03-19 09:12:00,33.4,32.2,29.54,ENE,67,13.0,24.0,95,0.00,,,0.00,meteohub,2013-03-19 09:12:00,
2013-03-19 09:17:00,33.6,32.4,29.57,ENE,67,12.0,23.0,95,0.00,,,0.00,meteohub,2013-03-19 09:17:00,
2013-03-19 09:22:00,33.6,32.4,29.57,ENE,67,10.0,20.0,95,0.00,,,0.00,meteohub,2013-03-19 09:22:00,
2013-03-19 09:27:00,33.6,32.4,29.57,NE,45,13.0,20.0,95,0.00,,,0.00,meteohub,2013-03-19 09:27:00,
2013-03-19 09:32:00,33.6,32.0,29.57,ENE,67,18.0,22.0,94,0.00,,,0.00,meteohub,2013-03-19 09:32:00,
2013-03-19 09:38:00,33.8,32.0,29.57,NE,45,17.0,22.0,93,0.00,,,0.00,meteohub,2013-03-19 09:38:00,
2013-03-19 09:43:00,33.8,32.0,29.57,North,0,19.0,22.0,93,0.00,,,0.00,meteohub,2013-03-19 09:43:00,
2013-03-19 09:49:00,33.6,31.8,29.57,North,0,14.0,21.0,93,0.00,,,0.00,meteohub,2013-03-19 09:49:00,
2013-03-19 09:54:00,33.8,31.6,29.57,NE,45,13.0,24.0,92,0.00,,,0.00,meteohub,2013-03-19 09:54:00,
2013-03-19 09:59:00,33.8,31.6,29.57,ENE,67,17.0,24.0,92,0.00,,,0.00,meteohub,2013-03-19 09:59:00,
2013-03-19 10:05:00,33.8,31.6,29.57,NE,45,17.0,24.0,92,0.00,,,0.00,meteohub,2013-03-19 10:05:00,
2013-03-19 10:10:00,33.8,31.6,29.57,NE,45,17.0,24.0,92,0.00,,,0.00,meteohub,2013-03-19 10:10:00,
2013-03-19 10:15:00,33.8,31.6,29.57,NE,45,10.0,24.0,92,0.00,,,0.00,meteohub,2013-03-19 10:15:00,
2013-03-19 10:20:00,33.8,32.0,29.57,ENE,67,17.0,21.0,93,0.00,,,0.00,meteohub,2013-03-19 10:20:00,
2013-03-19 10:25:00,33.8,32.0,29.57,East,90,17.0,21.0,93,0.00,,,0.00,meteohub,2013-03-19 10:25:00,
2013-03-19 10:31:00,33.8,32.0,29.57,NE,45,15.0,21.0,93,0.00,,,0.00,meteohub,2013-03-19 10:31:00,
2013-03-19 10:37:00,33.6,32.0,29.57,NNE,22,17.0,21.0,94,0.00,,,0.00,meteohub,2013-03-19 10:37:00,
2013-03-19 10:42:00,33.6,32.4,29.57,ENE,67,10.0,18.0,95,0.00,,,0.00,meteohub,2013-03-19 10:42:00,
2013-03-19 10:47:00,33.6,32.4,29.57,NE,45,13.0,17.0,95,0.00,,,0.00,meteohub,2013-03-19 10:47:00,
2013-03-19 10:52:00,33.4,32.2,29.57,NE,45,11.0,20.0,95,0.00,,,0.00,meteohub,2013-03-19 10:52:00,
2013-03-19 10:58:00,33.4,32.4,29.57,NE,45,11.0,20.0,96,0.00,,,0.00,meteohub,2013-03-19 10:58:00,
2013-03-19 11:03:00,33.4,32.4,29.57,ENE,67,13.0,20.0,96,0.00,,,0.00,meteohub,2013-03-19 11:03:00,
2013-03-19 11:08:00,33.6,32.9,29.57,East,90,14.0,20.0,97,0.00,,,0.00,meteohub,2013-03-19 11:08:00,
2013-03-19 11:13:00,33.6,32.9,29.57,ENE,67,11.0,20.0,97,0.00,,,0.00,meteohub,2013-03-19 11:13:00,
2013-03-19 11:18:00,33.6,32.9,29.57,ENE,67,13.0,17.0,97,0.00,,,0.00,meteohub,2013-03-19 11:18:00,
2013-03-19 11:24:00,33.8,33.1,29.57,ENE,67,11.0,17.0,97,0.00,,,0.00,meteohub,2013-03-19 11:24:00,
2013-03-19 11:29:00,33.8,33.1,29.57,NE,45,10.0,17.0,97,0.00,,,0.00,meteohub,2013-03-19 11:29:00,
2013-03-19 11:34:00,33.8,33.1,29.57,East,90,12.0,17.0,97,0.00,,,0.00,meteohub,2013-03-19 11:34:00,
2013-03-19 11:40:00,33.8,33.1,29.57,NE,45,15.0,18.0,97,0.00,,,0.00,meteohub,2013-03-19 11:40:00,
2013-03-19 11:45:00,33.8,33.1,29.57,NE,45,15.0,18.0,97,0.00,,,0.00,meteohub,2013-03-19 11:45:00,
2013-03-19 11:50:00,33.6,32.9,29.57,ESE,112,13.0,18.0,97,0.00,,,0.00,meteohub,2013-03-19 11:50:00,
2013-03-19 11:55:00,33.6,33.1,29.57,ENE,67,9.0,17.0,98,0.00,,,0.00,meteohub,2013-03-19 11:55:00,
2013-03-19 12:01:00,33.4,32.9,29.57,ENE,67,11.0,17.0,98,0.00,,,0.00,meteohub,2013-03-19 12:01:00,
2013-03-19 12:06:00,33.4,32.9,29.57,ENE,67,8.0,17.0,98,0.00,,,0.00,meteohub,2013-03-19 12:06:00,
2013-03-19 12:11:00,33.4,32.9,29.57,ENE,67,10.0,17.0,98,0.00,,,0.00,meteohub,2013-03-19 12:11:00,
2013-03-19 12:16:00,33.4,32.9,29.57,NE,45,10.0,15.0,98,0.00,,,0.00,meteohub,2013-03-19 12:16:00,
2013-03-19 12:22:00,33.4,32.9,29.57,East,90,10.0,15.0,98,0.00,,,0.00,meteohub,2013-03-19 12:22:00,
2013-03-19 12:27:00,33.4,32.9,29.57,ENE,67,10.0,18.0,98,0.00,,,0.00,meteohub,2013-03-19 12:27:00,
2013-03-19 12:32:00,33.6,33.1,29.57,East,90,9.0,18.0,98,0.00,,,0.00,meteohub,2013-03-19 12:32:00,
2013-03-19 12:37:00,33.6,33.1,29.57,ENE,67,8.0,18.0,98,0.00,,,0.00,meteohub,2013-03-19 12:37:00,
2013-03-19 12:42:00,33.4,32.9,29.57,East,90,8.0,14.0,98,0.00,,,0.00,meteohub,2013-03-19 12:42:00,
2013-03-19 12:47:00,33.6,33.1,29.57,NNE,22,10.0,13.0,98,0.00,,,0.00,meteohub,2013-03-19 12:47:00,
2013-03-19 12:52:00,33.6,33.1,29.57,NE,45,15.0,15.0,98,0.00,,,0.00,meteohub,2013-03-19 12:52:00,
2013-03-19 12:57:00,33.8,33.3,29.57,ENE,67,14.0,17.0,98,0.00,,,0.00,meteohub,2013-03-19 12:57:00,
2013-03-19 13:03:00,33.8,33.3,29.57,ENE,67,15.0,17.0,98,0.00,,,0.00,meteohub,2013-03-19 13:03:00,
2013-03-19 13:08:00,33.8,33.3,29.57,East,90,11.0,17.0,98,0.00,,,0.00,meteohub,2013-03-19 13:08:00,
2013-03-19 13:13:00,33.8,33.3,29.57,ENE,67,9.0,22.0,98,0.00,,,0.00,meteohub,2013-03-19 13:13:00,
2013-03-19 13:18:00,33.8,33.3,29.57,East,90,13.0,22.0,98,0.00,,,0.00,meteohub,2013-03-19 13:18:00,
2013-03-19 13:24:00,33.8,33.3,29.57,East,90,16.0,22.0,98,0.00,,,0.00,meteohub,2013-03-19 13:24:00,
2013-03-19 13:29:00,34.0,33.4,29.57,East,90,11.0,19.0,98,0.00,,,0.00,meteohub,2013-03-19 13:29:00,
2013-03-19 13:34:00,34.0,33.4,29.57,ENE,67,11.0,20.0,98,0.00,,,0.00,meteohub,2013-03-19 13:34:00,
2013-03-19 13:39:00,34.0,33.4,29.57,NNE,22,13.0,20.0,98,0.00,,,0.00,meteohub,2013-03-19 13:39:00,
2013-03-19 13:44:00,33.8,33.3,29.57,ENE,67,18.0,20.0,98,0.00,,,0.00,meteohub,2013-03-19 13:44:00,
2013-03-19 13:49:00,34.0,33.4,29.57,ENE,67,15.0,19.0,98,0.00,,,0.00,meteohub,2013-03-19 13:49:00,
2013-03-19 13:54:00,34.0,33.4,29.57,East,90,9.0,20.0,98,0.00,,,0.00,meteohub,2013-03-19 13:54:00,
2013-03-19 14:00:00,34.0,33.4,29.57,ENE,67,17.0,23.0,98,0.00,,,0.00,meteohub,2013-03-19 14:00:00,
2013-03-19 14:05:00,34.0,33.4,29.57,NE,45,6.0,23.0,98,0.00,,,0.00,meteohub,2013-03-19 14:05:00,
2013-03-19 14:10:00,34.0,33.4,29.57,ENE,67,12.0,23.0,98,0.00,,,0.00,meteohub,2013-03-19 14:10:00,
2013-03-19 14:15:00,34.0,33.4,29.57,NE,45,13.0,20.0,98,0.00,,,0.00,meteohub,2013-03-19 14:15:00,
2013-03-19 14:20:00,34.0,33.4,29.57,East,90,12.0,20.0,98,0.00,,,0.00,meteohub,2013-03-19 14:20:00,
2013-03-19 14:26:00,34.0,33.4,29.57,NE,45,8.0,20.0,98,0.00,,,0.00,meteohub,2013-03-19 14:26:00,
2013-03-19 14:31:00,34.0,33.4,29.57,ENE,67,11.0,18.0,98,0.00,,,0.00,meteohub,2013-03-19 14:31:00,
2013-03-19 14:37:00,34.0,33.4,29.57,ENE,67,16.0,19.0,98,0.00,,,0.00,meteohub,2013-03-19 14:37:00,
2013-03-19 14:42:00,34.0,33.4,29.57,East,90,13.0,19.0,98,0.00,,,0.00,meteohub,2013-03-19 14:42:00,
2013-03-19 14:47:00,34.0,33.4,29.57,East,90,11.0,19.0,98,0.00,,,0.00,meteohub,2013-03-19 14:47:00,
2013-03-19 14:52:00,34.0,33.4,29.57,East,90,13.0,18.0,98,0.00,,,0.00,meteohub,2013-03-19 14:52:00,
2013-03-19 14:57:00,34.0,33.4,29.57,East,90,11.0,19.0,98,0.00,,,0.00,meteohub,2013-03-19 14:57:00,
2013-03-19 15:02:00,34.0,33.4,29.57,NE,45,12.0,19.0,98,0.00,,,0.00,meteohub,2013-03-19 15:02:00,
2013-03-19 15:07:00,34.0,33.4,29.57,NE,45,18.0,19.0,98,0.00,,,0.00,meteohub,2013-03-19 15:07:00,
2013-03-19 15:12:00,34.0,33.4,29.57,ENE,67,16.0,18.0,98,0.00,,,0.00,meteohub,2013-03-19 15:12:00,
2013-03-19 15:17:00,34.0,33.4,29.57,East,90,6.0,19.0,98,0.00,,,0.00,meteohub,2013-03-19 15:17:00,
2013-03-19 15:22:00,34.0,33.4,29.57,East,90,20.0,20.0,98,0.00,,,0.00,meteohub,2013-03-19 15:22:00,
2013-03-19 15:27:00,34.0,33.4,29.57,ENE,67,9.0,22.0,98,0.00,,,0.00,meteohub,2013-03-19 15:27:00,
2013-03-19 15:33:00,33.8,33.3,29.57,NNE,22,10.0,22.0,98,0.00,,,0.00,meteohub,2013-03-19 15:33:00,
2013-03-19 15:38:00,33.8,33.3,29.57,East,90,9.0,22.0,98,0.00,,,0.00,meteohub,2013-03-19 15:38:00,
2013-03-19 15:43:00,33.8,33.3,29.57,ENE,67,15.0,17.0,98,0.00,,,0.00,meteohub,2013-03-19 15:43:00,
2013-03-19 15:48:00,33.8,33.3,29.57,ENE,67,15.0,23.0,98,0.00,,,0.00,meteohub,2013-03-19 15:48:00,
2013-03-19 15:53:00,33.8,33.3,29.57,ENE,67,11.0,23.0,98,0.00,,,0.00,meteohub,2013-03-19 15:53:00,
2013-03-19 15:59:00,33.8,33.3,29.57,NE,45,11.0,23.0,98,0.00,,,0.00,meteohub,2013-03-19 15:59:00,
2013-03-19 16:04:00,33.8,33.3,29.57,East,90,15.0,15.0,98,0.00,,,0.00,meteohub,2013-03-19 16:04:00,
2013-03-19 16:09:00,33.8,33.3,29.57,ENE,67,10.0,15.0,98,0.00,,,0.00,meteohub,2013-03-19 16:09:00,
2013-03-19 16:14:00,33.6,33.1,29.57,NE,45,12.0,19.0,98,0.00,,,0.00,meteohub,2013-03-19 16:14:00,
2013-03-19 16:20:00,33.6,33.1,29.57,NE,45,12.0,19.0,98,0.00,,,0.00,meteohub,2013-03-19 16:20:00,
2013-03-19 16:25:00,33.6,33.1,29.57,ENE,67,7.0,17.0,98,0.00,,,0.00,meteohub,2013-03-19 16:25:00,
2013-03-19 16:30:00,33.4,32.9,29.57,ENE,67,11.0,17.0,98,0.00,,,0.00,meteohub,2013-03-19 16:30:00,
2013-03-19 16:35:00,33.4,32.9,29.60,NE,45,6.0,14.0,98,0.00,,,0.00,meteohub,2013-03-19 16:35:00,
2013-03-19 16:40:00,33.4,32.9,29.60,ENE,67,10.0,16.0,98,0.00,,,0.00,meteohub,2013-03-19 16:40:00,
2013-03-19 16:45:00,33.4,32.9,29.60,ENE,67,8.0,17.0,98,0.00,,,0.00,meteohub,2013-03-19 16:45:00,
2013-03-19 16:50:00,33.4,32.9,29.60,East,90,11.0,17.0,98,0.00,,,0.00,meteohub,2013-03-19 16:50:00,
2013-03-19 16:56:00,33.4,32.9,29.60,East,90,6.0,17.0,98,0.00,,,0.00,meteohub,2013-03-19 16:56:00,
2013-03-19 17:01:00,33.6,33.1,29.60,East,90,11.0,15.0,98,0.00,,,0.00,meteohub,2013-03-19 17:01:00,
2013-03-19 17:07:00,33.6,33.1,29.60,East,90,6.0,15.0,98,0.00,,,0.00,meteohub,2013-03-19 17:07:00,
2013-03-19 17:11:00,33.6,33.1,29.60,ENE,67,11.0,13.0,98,0.00,,,0.00,meteohub,2013-03-19 17:11:00,
2013-03-19 17:17:00,33.6,33.1,29.60,ENE,67,9.0,15.0,98,0.00,,,0.00,meteohub,2013-03-19 17:17:00,
2013-03-19 17:22:00,33.6,33.1,29.60,East,90,7.0,15.0,98,0.00,,,0.00,meteohub,2013-03-19 17:22:00,
2013-03-19 17:27:00,33.6,33.1,29.60,ENE,67,12.0,15.0,98,0.00,,,0.00,meteohub,2013-03-19 17:27:00,
2013-03-19 17:32:00,33.6,33.1,29.60,ENE,67,10.0,18.0,98,0.00,,,0.00,meteohub,2013-03-19 17:32:00,
2013-03-19 17:38:00,33.6,33.1,29.60,East,90,8.0,18.0,98,0.00,,,0.00,meteohub,2013-03-19 17:38:00,
2013-03-19 17:43:00,33.6,33.1,29.60,ENE,67,8.0,18.0,98,0.00,,,0.00,meteohub,2013-03-19 17:43:00,
2013-03-19 17:48:00,33.6,33.1,29.60,East,90,13.0,17.0,98,0.00,,,0.00,meteohub,2013-03-19 17:48:00,
2013-03-19 17:53:00,33.6,33.1,29.60,ENE,67,15.0,16.0,98,0.00,,,0.00,meteohub,2013-03-19 17:53:00,
2013-03-19 17:58:00,33.4,32.9,29.60,NE,45,11.0,16.0,98,0.00,,,0.00,meteohub,2013-03-19 17:58:00,
2013-03-19 18:04:00,33.4,32.9,29.60,East,90,17.0,17.0,98,0.00,,,0.00,meteohub,2013-03-19 18:04:00,
2013-03-19 18:09:00,33.4,32.9,29.60,East,90,4.0,19.0,98,0.00,,,0.00,meteohub,2013-03-19 18:09:00,
2013-03-19 18:14:00,33.4,32.9,29.60,East,90,10.0,19.0,98,0.00,,,0.00,meteohub,2013-03-19 18:14:00,
2013-03-19 18:19:00,33.4,32.9,29.60,East,90,13.0,19.0,98,0.00,,,0.00,meteohub,2013-03-19 18:19:00,
2013-03-19 18:24:00,33.3,32.7,29.60,ENE,67,10.0,15.0,98,0.00,,,0.00,meteohub,2013-03-19 18:24:00,
2013-03-19 18:29:00,33.3,32.7,29.60,East,90,12.0,15.0,98,0.00,,,0.00,meteohub,2013-03-19 18:29:00,
2013-03-19 18:34:00,33.4,32.9,29.60,ENE,67,11.0,15.0,98,0.00,,,0.00,meteohub,2013-03-19 18:34:00,
2013-03-19 18:39:00,33.4,32.9,29.60,East,90,13.0,15.0,98,0.00,,,0.00,meteohub,2013-03-19 18:39:00,
2013-03-19 18:45:00,33.3,32.7,29.60,East,90,9.0,17.0,98,0.00,,,0.00,meteohub,2013-03-19 18:45:00,
2013-03-19 18:50:00,33.3,32.7,29.63,ENE,67,7.0,17.0,98,0.00,,,0.00,meteohub,2013-03-19 18:50:00,
2013-03-19 18:55:00,33.3,32.7,29.63,ENE,67,10.0,17.0,98,0.00,,,0.00,meteohub,2013-03-19 18:55:00,
2013-03-19 19:00:00,33.3,32.7,29.63,ENE,67,6.0,15.0,98,0.00,,,0.00,meteohub,2013-03-19 19:00:00,
2013-03-19 19:07:00,33.1,32.5,29.63,East,90,7.0,15.0,98,0.00,,,0.00,meteohub,2013-03-19 19:07:00,
2013-03-19 19:12:00,33.1,32.5,29.63,NNE,22,6.0,13.0,98,0.00,,,0.00,meteohub,2013-03-19 19:12:00,
2013-03-19 19:17:00,33.1,32.5,29.63,ENE,67,9.0,13.0,98,0.00,,,0.00,meteohub,2013-03-19 19:17:00,
2013-03-19 19:22:00,33.1,32.5,29.63,East,90,8.0,14.0,98,0.00,,,0.00,meteohub,2013-03-19 19:22:00,
2013-03-19 19:27:00,33.1,32.5,29.63,NNE,22,8.0,14.0,98,0.00,,,0.00,meteohub,2013-03-19 19:27:00,
2013-03-19 19:32:00,33.1,32.5,29.63,ENE,67,9.0,14.0,98,0.00,,,0.00,meteohub,2013-03-19 19:32:00,
2013-03-19 19:38:00,33.1,32.5,29.63,East,90,5.0,13.0,98,0.00,,,0.00,meteohub,2013-03-19 19:38:00,
2013-03-19 19:43:00,33.1,32.5,29.63,NE,45,7.0,13.0,98,0.00,,,0.00,meteohub,2013-03-19 19:43:00,
2013-03-19 19:48:00,33.1,32.5,29.63,East,90,6.0,13.0,98,0.00,,,0.00,meteohub,2013-03-19 19:48:00,
2013-03-19 19:53:00,33.1,32.5,29.63,East,90,10.0,12.0,98,0.00,,,0.00,meteohub,2013-03-19 19:53:00,
2013-03-19 19:59:00,33.3,32.7,29.63,SE,135,8.0,15.0,98,0.00,,,0.00,meteohub,2013-03-19 19:59:00,
2013-03-19 20:04:00,33.3,32.7,29.63,East,90,9.0,15.0,98,0.00,,,0.01,meteohub,2013-03-19 20:04:00,
2013-03-19 20:09:00,33.4,32.9,29.63,NE,45,6.0,15.0,98,0.00,,,0.01,meteohub,2013-03-19 20:09:00,
2013-03-19 20:15:00,33.3,32.7,29.63,East,90,11.0,13.0,98,0.00,,,0.01,meteohub,2013-03-19 20:15:00,
2013-03-19 20:20:00,33.4,32.9,29.63,ENE,67,9.0,13.0,98,0.00,,,0.01,meteohub,2013-03-19 20:20:00,
2013-03-19 20:25:00,33.4,32.9,29.63,East,90,13.0,13.0,98,0.00,,,0.01,meteohub,2013-03-19 20:25:00,
2013-03-19 20:31:00,33.4,32.9,29.63,NE,45,10.0,13.0,98,0.01,,,0.02,meteohub,2013-03-19 20:31:00,
2013-03-19 20:36:00,33.4,32.9,29.63,East,90,14.0,14.0,98,0.01,,,0.02,meteohub,2013-03-19 20:36:00,
2013-03-19 20:41:00,33.4,32.9,29.63,ENE,67,7.0,14.0,98,0.01,,,0.02,meteohub,2013-03-19 20:41:00,
2013-03-19 20:46:00,33.4,32.9,29.63,ENE,67,8.0,14.0,98,0.02,,,0.02,meteohub,2013-03-19 20:46:00,
2013-03-19 20:52:00,33.4,32.9,29.63,ENE,67,5.0,14.0,98,0.02,,,0.02,meteohub,2013-03-19 20:52:00,
2013-03-19 20:57:00,33.4,32.9,29.63,East,90,15.0,15.0,98,0.02,,,0.02,meteohub,2013-03-19 20:57:00,
2013-03-19 21:02:00,33.6,33.1,29.63,ENE,67,13.0,19.0,98,0.02,,,0.03,meteohub,2013-03-19 21:02:00,
2013-03-19 21:07:00,33.6,33.1,29.63,East,90,9.0,19.0,98,0.02,,,0.03,meteohub,2013-03-19 21:07:00,
2013-03-19 21:12:00,33.6,33.1,29.63,NE,45,13.0,19.0,98,0.03,,,0.04,meteohub,2013-03-19 21:12:00,
2013-03-19 21:18:00,33.6,33.1,29.63,East,90,9.0,17.0,98,0.03,,,0.04,meteohub,2013-03-19 21:18:00,
2013-03-19 21:23:00,33.6,33.1,29.63,ESE,112,4.0,17.0,98,0.03,,,0.04,meteohub,2013-03-19 21:23:00,
2013-03-19 21:28:00,33.6,33.1,29.63,SE,135,11.0,15.0,98,0.03,,,0.04,meteohub,2013-03-19 21:28:00,
2013-03-19 21:33:00,33.6,33.1,29.63,ESE,112,11.0,18.0,98,0.03,,,0.05,meteohub,2013-03-19 21:33:00,
2013-03-19 21:38:00,33.8,33.3,29.63,East,90,11.0,18.0,98,0.03,,,0.05,meteohub,2013-03-19 21:38:00,
2013-03-19 21:44:00,33.8,33.3,29.63,East,90,13.0,18.0,98,0.04,,,0.05,meteohub,2013-03-19 21:44:00,
2013-03-19 21:49:00,33.8,33.3,29.63,East,90,8.0,19.0,98,0.04,,,0.06,meteohub,2013-03-19 21:49:00,
2013-03-19 21:54:00,33.8,33.3,29.63,East,90,16.0,19.0,98,0.04,,,0.06,meteohub,2013-03-19 21:54:00,
2013-03-19 21:59:00,33.8,33.3,29.63,SE,135,9.0,19.0,98,0.04,,,0.06,meteohub,2013-03-19 21:59:00,
2013-03-19 22:04:00,33.8,33.3,29.66,East,90,8.0,19.0,98,0.04,,,0.06,meteohub,2013-03-19 22:04:00,
2013-03-19 22:09:00,33.8,33.3,29.66,East,90,8.0,19.0,98,0.04,,,0.07,meteohub,2013-03-19 22:09:00,
2013-03-19 22:14:00,33.8,33.3,29.66,East,90,9.0,17.0,98,0.03,,,0.07,meteohub,2013-03-19 22:14:00,
2013-03-19 22:20:00,33.8,33.3,29.66,East,90,9.0,15.0,98,0.04,,,0.08,meteohub,2013-03-19 22:20:00,
2013-03-19 22:25:00,33.8,33.3,29.66,NE,45,6.0,15.0,98,0.04,,,0.08,meteohub,2013-03-19 22:25:00,
2013-03-19 22:30:00,33.8,33.3,29.66,NE,45,10.0,15.0,98,0.04,,,0.08,meteohub,2013-03-19 22:30:00,
2013-03-19 22:35:00,33.8,33.3,29.66,East,90,11.0,14.0,98,0.03,,,0.08,meteohub,2013-03-19 22:35:00,
2013-03-19 22:40:00,33.8,33.3,29.66,East,90,10.0,15.0,98,0.04,,,0.09,meteohub,2013-03-19 22:40:00,
2013-03-19 22:45:00,33.8,33.3,29.66,ENE,67,16.0,16.0,98,0.04,,,0.09,meteohub,2013-03-19 22:45:00,
2013-03-19 22:50:00,33.8,33.3,29.66,East,90,9.0,16.0,98,0.04,,,0.09,meteohub,2013-03-19 22:50:00,
2013-03-19 22:56:00,33.8,33.3,29.66,East,90,11.0,16.0,98,0.04,,,0.10,meteohub,2013-03-19 22:56:00,
2013-03-19 23:01:00,33.8,33.3,29.66,East,90,11.0,16.0,98,0.04,,,0.10,meteohub,2013-03-19 23:01:00,
2013-03-19 23:06:00,33.8,33.3,29.66,East,90,9.0,14.0,98,0.04,,,0.10,meteohub,2013-03-19 23:06:00,
2013-03-19 23:11:00,33.8,33.3,29.66,East,90,13.0,13.0,98,0.04,,,0.11,meteohub,2013-03-19 23:11:00,
2013-03-19 23:17:00,33.8,33.3,29.66,East,90,13.0,14.0,98,0.04,,,0.11,meteohub,2013-03-19 23:17:00,
2013-03-19 23:22:00,33.8,33.3,29.66,East,90,15.0,17.0,98,0.04,,,0.11,meteohub,2013-03-19 23:22:00,
2013-03-19 23:27:00,33.8,33.3,29.66,East,90,10.0,17.0,98,0.04,,,0.11,meteohub,2013-03-19 23:27:00,
2013-03-19 23:32:00,33.8,33.3,29.66,ESE,112,5.0,17.0,98,0.04,,,0.12,meteohub,2013-03-19 23:32:00,
2013-03-19 23:37:00,33.8,33.3,29.66,East,90,13.0,16.0,98,0.03,,,0.12,meteohub,2013-03-19 23:37:00,
2013-03-19 23:42:00,33.8,33.3,29.66,ESE,112,10.0,15.0,98,0.04,,,0.12,meteohub,2013-03-19 23:42:00,
2013-03-19 23:47:00,33.6,33.1,29.66,East,90,7.0,15.0,98,0.03,,,0.12,meteohub,2013-03-19 23:47:00,
2013-03-19 23:52:00,33.6,33.1,29.66,East,90,11.0,15.0,98,0.03,,,0.12,meteohub,2013-03-19 23:52:00,
2013-03-19 23:57:00,33.8,33.3,29.66,ESE,112,11.0,14.0,98,0.03,,,0.12,meteohub,2013-03-19 23:57:00,